| time (UTC) | temp F | wind direction | speed MPH | gust MPH | rain 1hr in | rain 24hr in | rain mn in | humidity % | barometer mb |
| 20260505075510 | 54 | 242 | 0.0 | 0.0 | 0.00 | 0.00 | 0.00 | 95 | 1009.7 |
| 20260505075007 | 55 | 233 | 0.0 | 0.0 | 0.00 | 0.00 | 0.00 | 95 | 1009.8 |
| 20260505074504 | 55 | 231 | 1.0 | 1.0 | 0.00 | 0.00 | 0.00 | 93 | 1009.7 |
| 20260505074001 | 55 | 244 | 0.0 | 0.0 | 0.00 | 0.00 | 0.00 | 93 | 1009.8 |
| 20260505073459 | 54 | 251 | 0.0 | 0.0 | 0.00 | 0.00 | 0.00 | 92 | 1010.2 |
| 20260505072956 | 54 | 251 | 0.0 | 0.0 | 0.00 | 0.00 | 0.00 | 92 | 1010.0 |
| 20260505072452 | 55 | 251 | 0.0 | 0.0 | 0.00 | 0.00 | 0.00 | 91 | 1010.2 |
| 20260505071948 | 55 | 242 | 1.0 | 1.0 | 0.00 | 0.00 | 0.00 | 92 | 1010.1 |
| 20260505071444 | 55 | 239 | 1.0 | 1.0 | 0.00 | 0.00 | 0.00 | 91 | 1010.1 |
| 20260505070942 | 54 | 233 | 0.0 | 0.0 | 0.00 | 0.00 | 0.00 | 91 | 1010.1 |
| 20260505070439 | 54 | 251 | 0.0 | 0.0 | 0.00 | 0.00 | 0.00 | 91 | 1010.0 |
| 20260505065935 | 53 | 253 | 1.0 | 1.0 | 0.00 | 0.00 | 0.00 | 91 | 1009.9 |
| 20260505065431 | 53 | 255 | 2.0 | 2.0 | 0.00 | 0.00 | 0.00 | 91 | 1009.7 |
| 20260505064928 | 53 | 249 | 1.0 | 1.0 | 0.00 | 0.00 | 0.00 | 91 | 1009.8 |
| 20260505064425 | 53 | 249 | 1.0 | 1.0 | 0.00 | 0.00 | 0.00 | 91 | 1009.5 |
| 20260505063923 | 54 | 245 | 0.0 | 0.0 | 0.00 | 0.00 | 0.00 | 90 | 1009.6 |
| 20260505063420 | 54 | 243 | 0.0 | 1.0 | 0.00 | 0.00 | 0.00 | 89 | 1009.4 |
| 20260505062916 | 54 | 246 | 1.0 | 1.0 | 0.00 | 0.00 | 0.00 | 90 | 1009.5 |
| 20260505062413 | 54 | 247 | 2.0 | 2.0 | 0.00 | 0.00 | 0.00 | 90 | 1009.5 |
| 20260505061910 | 54 | 237 | 1.0 | 1.0 | 0.00 | 0.00 | 0.00 | 90 | 1009.6 |
| 20260505061409 | 54 | 240 | 0.0 | 0.0 | 0.00 | 0.00 | 0.00 | 89 | 1009.6 |
| 20260505060906 | 55 | 238 | 0.0 | 0.0 | 0.00 | 0.00 | 0.00 | 87 | 1009.7 |
| 20260505060402 | 55 | 245 | 1.0 | 1.0 | 0.00 | 0.00 | 0.00 | 88 | 1009.6 |
| 20260505055858 | 55 | 252 | 3.0 | 3.0 | 0.00 | 0.00 | 0.00 | 86 | 1009.6 |
| 20260505055355 | 55 | 242 | 0.0 | 1.0 | 0.00 | 0.00 | 0.00 | 87 | 1009.7 |
| 20260505054851 | 55 | 242 | 1.0 | 2.0 | 0.00 | 0.00 | 0.00 | 87 | 1009.8 |
| 20260505054349 | 56 | 244 | 1.0 | 1.0 | 0.00 | 0.00 | 0.00 | 87 | 1009.7 |
| 20260505053847 | 55 | 229 | 0.0 | 1.0 | 0.00 | 0.00 | 0.00 | 87 | 1009.9 |
| 20260505053344 | 55 | 231 | 1.0 | 1.0 | 0.00 | 0.00 | 0.00 | 88 | 1009.8 |
| 20260505052841 | 56 | 244 | 0.0 | 0.0 | 0.00 | 0.00 | 0.00 | 87 | 1009.8 |
| 20260505052337 | 56 | 248 | 1.0 | 2.0 | 0.00 | 0.00 | 0.00 | 86 | 1010.0 |
| 20260505051835 | 55 | 228 | 0.0 | 1.0 | 0.00 | 0.00 | 0.00 | 89 | 1010.0 |
| 20260505051332 | 53 | 245 | 2.0 | 2.0 | 0.00 | 0.00 | 0.00 | 93 | 1009.9 |
| 20260505050830 | 53 | 237 | 0.0 | 0.0 | 0.00 | 0.00 | 0.00 | 94 | 1009.9 |
| 20260505050328 | 53 | 242 | 1.0 | 1.0 | 0.00 | 0.00 | 0.00 | 94 | 1009.9 |
| 20260505041758 | 49 | 248 | 0.0 | 0.0 | 0.00 | 0.00 | 0.00 | 97 | 1010.0 |
| 20260505041255 | 49 | 248 | 0.0 | 0.0 | 0.00 | 0.00 | 0.00 | 96 | 1009.9 |
| 20260505040752 | 49 | 249 | 1.0 | 1.0 | 0.00 | 0.00 | 0.00 | 96 | 1010.0 |
| 20260505040250 | 49 | 260 | 0.0 | 0.0 | 0.00 | 0.00 | 0.00 | 96 | 1009.8 |
| 20260505035747 | 49 | 263 | 1.0 | 1.0 | 0.00 | 0.00 | 0.00 | 96 | 1009.8 |
| 20260505035242 | 49 | 256 | 0.0 | 0.0 | 0.00 | 0.00 | 0.00 | 96 | 1009.8 |
| 20260505034739 | 49 | 256 | 1.0 | 1.0 | 0.00 | 0.00 | 0.00 | 95 | 1010.1 |
| 20260505034236 | 50 | 256 | 1.0 | 1.0 | 0.00 | 0.00 | 0.00 | 95 | 1009.9 |
| 20260505033733 | 50 | 256 | 0.0 | 1.0 | 0.00 | 0.00 | 0.00 | 95 | 1009.9 |
| 20260505033231 | 50 | 256 | 1.0 | 1.0 | 0.00 | 0.00 | 0.00 | 94 | 1009.8 |
| 20260505032728 | 51 | 256 | 0.0 | 0.0 | 0.00 | 0.00 | 0.00 | 94 | 1009.9 |
| 20260505032224 | 51 | 256 | 0.0 | 1.0 | 0.00 | 0.00 | 0.00 | 93 | 1010.0 |
| 20260505031722 | 51 | 256 | 1.0 | 1.0 | 0.00 | 0.00 | 0.00 | 93 | 1010.0 |
| 20260505031218 | 52 | 256 | 1.0 | 1.0 | 0.00 | 0.00 | 0.00 | 93 | 1010.1 |
| 20260505030715 | 52 | 256 | 0.0 | 1.0 | 0.00 | 0.00 | 0.00 | 92 | 1010.3 |
| 20260505030211 | 52 | 257 | 1.0 | 2.0 | 0.00 | 0.00 | 0.00 | 92 | 1010.2 |
| 20260505025707 | 52 | 256 | 1.0 | 1.0 | 0.00 | 0.00 | 0.00 | 92 | 1010.0 |
| 20260505025206 | 52 | 256 | 1.0 | 1.0 | 0.00 | 0.00 | 0.00 | 92 | 1010.1 |
| 20260505024703 | 52 | 256 | 1.0 | 1.0 | 0.00 | 0.00 | 0.00 | 91 | 1010.1 |
| 20260505024200 | 52 | 256 | 0.0 | 1.0 | 0.00 | 0.00 | 0.00 | 91 | 1010.1 |
| 20260505023657 | 53 | 256 | 0.0 | 0.0 | 0.00 | 0.00 | 0.00 | 90 | 1010.0 |
| 20260505023155 | 53 | 262 | 1.0 | 2.0 | 0.00 | 0.00 | 0.00 | 90 | 1010.0 |
| 20260505022652 | 53 | 252 | 0.0 | 1.0 | 0.00 | 0.00 | 0.00 | 89 | 1010.1 |
| 20260505022149 | 53 | 253 | 1.0 | 2.0 | 0.00 | 0.00 | 0.00 | 89 | 1010.0 |
| 20260505021645 | 53 | 252 | 0.0 | 0.0 | 0.00 | 0.00 | 0.00 | 88 | 1009.9 |
| 20260505021143 | 54 | 253 | 1.0 | 1.0 | 0.00 | 0.00 | 0.00 | 87 | 1010.0 |
| 20260505020638 | 54 | 253 | 1.0 | 1.0 | 0.00 | 0.00 | 0.00 | 86 | 1010.0 |
| 20260505020134 | 55 | 249 | 2.0 | 2.0 | 0.00 | 0.00 | 0.00 | 85 | 1010.2 |
| 20260505015631 | 55 | 241 | 0.0 | 0.0 | 0.00 | 0.00 | 0.00 | 85 | 1010.2 |
| 20260505015128 | 56 | 240 | 0.0 | 0.0 | 0.00 | 0.00 | 0.00 | 85 | 1010.1 |
| 20260505014625 | 56 | 240 | 0.0 | 0.0 | 0.00 | 0.00 | 0.00 | 85 | 1010.1 |
| 20260505014122 | 56 | 240 | 0.0 | 0.0 | 0.00 | 0.00 | 0.00 | 83 | 1010.3 |
| 20260505013619 | 57 | 237 | 0.0 | 0.0 | 0.00 | 0.00 | 0.00 | 83 | 1010.0 |
| 20260505013116 | 57 | 256 | 0.0 | 1.0 | 0.00 | 0.00 | 0.00 | 82 | 1010.1 |
| 20260505012615 | 57 | 256 | 1.0 | 1.0 | 0.00 | 0.00 | 0.00 | 83 | 1010.0 |
| 20260505012111 | 57 | 256 | 0.0 | 0.0 | 0.00 | 0.00 | 0.00 | 82 | 1010.1 |
| 20260505011607 | 57 | 257 | 0.0 | 1.0 | 0.00 | 0.00 | 0.00 | 81 | 1010.1 |
| 20260505011104 | 58 | 258 | 0.0 | 0.0 | 0.00 | 0.00 | 0.00 | 79 | 1010.1 |
| 20260505010559 | 59 | 251 | 0.0 | 0.0 | 0.00 | 0.00 | 0.00 | 79 | 1010.3 |
| 20260505010056 | 60 | 255 | 1.0 | 1.0 | 0.00 | 0.00 | 0.00 | 76 | 1010.1 |
| 20260505005552 | 60 | 250 | 1.0 | 1.0 | 0.00 | 0.00 | 0.00 | 74 | 1010.0 |
| 20260505005050 | 61 | 259 | 3.0 | 3.0 | 0.00 | 0.00 | 0.00 | 73 | 1009.8 |
| 20260505004546 | 63 | 241 | 0.0 | 0.0 | 0.00 | 0.00 | 0.00 | 68 | 1009.7 |
| 20260505004043 | 63 | 228 | 1.0 | 1.0 | 0.00 | 0.00 | 0.00 | 67 | 1009.8 |
| 20260505003540 | 64 | 228 | 0.0 | 0.0 | 0.00 | 0.00 | 0.00 | 66 | 1009.6 |
| 20260505003038 | 64 | 244 | 0.0 | 0.0 | 0.00 | 0.00 | 0.00 | 65 | 1009.7 |
| 20260505002537 | 66 | 211 | 1.0 | 2.0 | 0.00 | 0.00 | 0.00 | 61 | 1009.6 |
| 20260505002032 | 67 | 239 | 2.0 | 2.0 | 0.00 | 0.00 | 0.00 | 57 | 1009.5 |
| 20260505001529 | 67 | 231 | 2.0 | 2.0 | 0.00 | 0.00 | 0.00 | 59 | 1009.3 |
| 20260505001026 | 67 | 237 | 2.0 | 2.0 | 0.00 | 0.00 | 0.00 | 56 | 1009.5 |
| 20260505000523 | 67 | 208 | 2.0 | 2.0 | 0.00 | 0.00 | 0.00 | 55 | 1009.5 |
| 20260505000021 | 68 | 226 | 1.0 | 1.0 | 0.00 | 0.00 | 0.00 | 58 | 1009.6 |
| 20260504235517 | 67 | 239 | 1.0 | 1.0 | 0.00 | 0.00 | 0.00 | 57 | 1009.6 |
| 20260504235013 | 68 | 213 | 2.0 | 2.0 | 0.00 | 0.00 | 0.00 | 58 | 1009.5 |
| 20260504234511 | 68 | 216 | 1.0 | 2.0 | 0.00 | 0.00 | 0.00 | 57 | 1009.4 |
| 20260504234008 | 68 | 238 | 0.0 | 1.0 | 0.00 | 0.00 | 0.00 | 55 | 1009.4 |
| 20260504233503 | 68 | 210 | 3.0 | 3.0 | 0.00 | 0.00 | 0.00 | 57 | 1009.3 |
| 20260504233000 | 68 | 244 | 0.0 | 1.0 | 0.00 | 0.00 | 0.00 | 56 | 1009.7 |
| 20260504232457 | 68 | 218 | 2.0 | 3.0 | 0.00 | 0.00 | 0.00 | 56 | 1009.3 |
| 20260504231955 | 68 | 193 | 2.0 | 3.0 | 0.00 | 0.00 | 0.00 | 54 | 1009.2 |
| 20260504231451 | 69 | 220 | 2.0 | 3.0 | 0.00 | 0.00 | 0.00 | 54 | 1009.5 |
| 20260504230947 | 69 | 115 | 3.0 | 6.0 | 0.00 | 0.00 | 0.00 | 53 | 1009.6 |
| 20260504230444 | 69 | 135 | 5.0 | 7.0 | 0.00 | 0.00 | 0.00 | 53 | 1009.7 |
| 20260504225943 | 69 | 226 | 1.0 | 1.0 | 0.00 | 0.00 | 0.00 | 53 | 1010.0 |
| 20260504225439 | 69 | 198 | 3.0 | 3.0 | 0.00 | 0.00 | 0.00 | 52 | 1009.8 |
| 20260504224936 | 69 | 244 | 1.0 | 1.0 | 0.00 | 0.00 | 0.00 | 52 | 1009.8 |
| 20260504224433 | 69 | 227 | 2.0 | 2.0 | 0.00 | 0.00 | 0.00 | 53 | 1009.6 |
| 20260504223930 | 70 | 154 | 4.0 | 6.0 | 0.00 | 0.00 | 0.00 | 52 | 1009.8 |
| 20260504223426 | 70 | 172 | 6.0 | 6.0 | 0.00 | 0.00 | 0.00 | 51 | 1009.7 |
| 20260504222922 | 71 | 145 | 6.0 | 8.0 | 0.00 | 0.00 | 0.00 | 50 | 1009.9 |
| 20260504222420 | 70 | 200 | 6.0 | 9.0 | 0.00 | 0.00 | 0.00 | 50 | 1009.7 |
| 20260504221917 | 70 | 158 | 2.0 | 3.0 | 0.00 | 0.00 | 0.00 | 50 | 1010.0 |
| 20260504221414 | 70 | 149 | 5.0 | 6.0 | 0.00 | 0.00 | 0.00 | 51 | 1009.9 |
| 20260504220911 | 70 | 235 | 3.0 | 4.0 | 0.00 | 0.00 | 0.00 | 50 | 1009.8 |
| 20260504220408 | 70 | 255 | 1.0 | 2.0 | 0.00 | 0.00 | 0.00 | 50 | 1009.9 |
| 20260504215905 | 71 | 101 | 6.0 | 8.0 | 0.00 | 0.00 | 0.00 | 51 | 1009.8 |
| 20260504215401 | 72 | 209 | 2.0 | 4.0 | 0.00 | 0.00 | 0.00 | 49 | 1009.7 |
| 20260504214857 | 72 | 175 | 6.0 | 9.0 | 0.00 | 0.00 | 0.00 | 47 | 1009.7 |
| 20260504214354 | 72 | 219 | 5.0 | 6.0 | 0.00 | 0.00 | 0.00 | 48 | 1009.5 |
| 20260504213851 | 73 | 223 | 5.0 | 7.0 | 0.00 | 0.00 | 0.00 | 47 | 1009.5 |
| 20260504213347 | 73 | 201 | 8.0 | 9.0 | 0.00 | 0.00 | 0.00 | 47 | 1009.3 |
| 20260504212844 | 74 | 111 | 6.0 | 7.0 | 0.00 | 0.00 | 0.00 | 46 | 1009.4 |
| 20260504212340 | 74 | 216 | 3.0 | 4.0 | 0.00 | 0.00 | 0.00 | 46 | 1009.3 |
| 20260504211838 | 73 | 200 | 5.0 | 6.0 | 0.00 | 0.00 | 0.00 | 46 | 1009.3 |
| 20260504211334 | 73 | 140 | 5.0 | 8.0 | 0.00 | 0.00 | 0.00 | 47 | 1009.3 |
| 20260504210832 | 73 | 205 | 3.0 | 4.0 | 0.00 | 0.00 | 0.00 | 48 | 1009.3 |
| 20260504210329 | 73 | 220 | 6.0 | 7.0 | 0.00 | 0.00 | 0.00 | 46 | 1009.5 |
| 20260504205826 | 72 | 96 | 6.0 | 7.0 | 0.00 | 0.00 | 0.00 | 47 | 1009.3 |
| 20260504205323 | 72 | 137 | 4.0 | 6.0 | 0.00 | 0.00 | 0.00 | 47 | 1009.2 |
| 20260504204821 | 73 | 158 | 5.0 | 8.0 | 0.00 | 0.00 | 0.00 | 49 | 1009.3 |
| 20260504204320 | 72 | 205 | 2.0 | 2.0 | 0.00 | 0.00 | 0.00 | 48 | 1009.4 |
| 20260504203819 | 73 | 222 | 4.0 | 7.0 | 0.00 | 0.00 | 0.00 | 46 | 1009.5 |
| 20260504203315 | 71 | 148 | 5.0 | 6.0 | 0.00 | 0.00 | 0.00 | 51 | 1009.6 |
| 20260504202810 | 72 | 125 | 2.0 | 3.0 | 0.00 | 0.00 | 0.00 | 50 | 1009.6 |
| 20260504202308 | 74 | 214 | 1.0 | 1.0 | 0.00 | 0.00 | 0.00 | 49 | 1009.6 |
| 20260504201805 | 74 | 230 | 0.0 | 1.0 | 0.00 | 0.00 | 0.00 | 44 | 1009.4 |
| 20260504201302 | 73 | 246 | 4.0 | 7.0 | 0.00 | 0.00 | 0.00 | 46 | 1009.7 |
| 20260504200800 | 72 | 154 | 6.0 | 9.0 | 0.00 | 0.00 | 0.00 | 48 | 1009.6 |
| 20260504200256 | 72 | 260 | 4.0 | 7.0 | 0.00 | 0.00 | 0.00 | 46 | 1009.6 |
| 20260504195752 | 71 | 159 | 7.0 | 9.0 | 0.00 | 0.00 | 0.00 | 47 | 1009.4 |
| 20260504195248 | 72 | 195 | 2.0 | 2.0 | 0.00 | 0.00 | 0.00 | 48 | 1009.7 |
| 20260504194745 | 72 | 181 | 3.0 | 3.0 | 0.00 | 0.00 | 0.00 | 46 | 1009.6 |
| 20260504194241 | 73 | 171 | 6.0 | 9.0 | 0.00 | 0.00 | 0.00 | 46 | 1009.6 |
| 20260504193738 | 74 | 234 | 1.0 | 2.0 | 0.00 | 0.00 | 0.00 | 44 | 1009.5 |
| 20260504193235 | 72 | 187 | 2.0 | 2.0 | 0.00 | 0.00 | 0.00 | 47 | 1009.8 |
| 20260504192733 | 71 | 235 | 1.0 | 1.0 | 0.00 | 0.00 | 0.00 | 48 | 1009.9 |
| 20260504192231 | 71 | 248 | 3.0 | 4.0 | 0.00 | 0.00 | 0.00 | 49 | 1009.7 |
| 20260504191730 | 71 | 138 | 7.0 | 13.0 | 0.00 | 0.00 | 0.00 | 50 | 1009.9 |
| 20260504191226 | 72 | 83 | 7.0 | 10.0 | 0.00 | 0.00 | 0.00 | 50 | 1009.9 |
| 20260504190721 | 71 | 232 | 0.0 | 1.0 | 0.00 | 0.00 | 0.00 | 53 | 1009.7 |
| 20260504190218 | 70 | 226 | 2.0 | 3.0 | 0.00 | 0.00 | 0.00 | 52 | 1009.9 |
| 20260504185715 | 71 | 196 | 6.0 | 8.0 | 0.00 | 0.00 | 0.00 | 53 | 1009.9 |
| 20260504185212 | 72 | 151 | 6.0 | 8.0 | 0.00 | 0.00 | 0.00 | 48 | 1009.8 |
| 20260504184708 | 71 | 221 | 4.0 | 6.0 | 0.00 | 0.00 | 0.00 | 51 | 1009.9 |
| 20260504184203 | 71 | 155 | 5.0 | 6.0 | 0.00 | 0.00 | 0.00 | 47 | 1010.2 |
| 20260504183700 | 71 | 207 | 3.0 | 4.0 | 0.00 | 0.00 | 0.00 | 52 | 1010.2 |
| 20260504183157 | 70 | 195 | 4.0 | 8.0 | 0.00 | 0.00 | 0.00 | 50 | 1010.3 |
| 20260504182655 | 71 | 248 | 5.0 | 7.0 | 0.00 | 0.00 | 0.00 | 50 | 1010.5 |
| 20260504182152 | 71 | 260 | 6.0 | 9.0 | 0.00 | 0.00 | 0.00 | 48 | 1010.3 |
| 20260504181649 | 70 | 131 | 8.0 | 10.0 | 0.00 | 0.00 | 0.00 | 49 | 1010.4 |
| 20260504181147 | 71 | 226 | 4.0 | 4.0 | 0.00 | 0.00 | 0.00 | 50 | 1010.6 |
| 20260504180646 | 70 | 240 | 2.0 | 3.0 | 0.00 | 0.00 | 0.00 | 48 | 1010.5 |
| 20260504180144 | 71 | 154 | 5.0 | 7.0 | 0.00 | 0.00 | 0.00 | 48 | 1010.6 |
| 20260504175641 | 71 | 220 | 3.0 | 4.0 | 0.00 | 0.00 | 0.00 | 56 | 1010.5 |
| 20260504175137 | 70 | 258 | 3.0 | 4.0 | 0.00 | 0.00 | 0.00 | 48 | 1010.7 |
| 20260504174636 | 71 | 220 | 2.0 | 3.0 | 0.00 | 0.00 | 0.00 | 47 | 1010.9 |
| 20260504174132 | 69 | 187 | 3.0 | 4.0 | 0.00 | 0.00 | 0.00 | 50 | 1010.9 |
| 20260504173629 | 69 | 186 | 6.0 | 8.0 | 0.00 | 0.00 | 0.00 | 49 | 1010.9 |
| 20260504173127 | 70 | 224 | 5.0 | 6.0 | 0.00 | 0.00 | 0.00 | 52 | 1010.7 |
| 20260504172623 | 70 | 187 | 4.0 | 4.0 | 0.00 | 0.00 | 0.00 | 49 | 1010.6 |
| 20260504172120 | 70 | 150 | 4.0 | 4.0 | 0.00 | 0.00 | 0.00 | 47 | 1010.5 |
| 20260504171616 | 70 | 227 | 6.0 | 9.0 | 0.00 | 0.00 | 0.00 | 47 | 1011.1 |
| 20260504171114 | 70 | 236 | 3.0 | 4.0 | 0.00 | 0.00 | 0.00 | 48 | 1011.1 |
| 20260504170609 | 68 | 219 | 6.0 | 9.0 | 0.00 | 0.00 | 0.00 | 50 | 1011.1 |
| 20260504170107 | 68 | 212 | 4.0 | 6.0 | 0.00 | 0.00 | 0.00 | 50 | 1011.3 |
| 20260504150953 | 65 | 227 | 3.0 | 3.0 | 0.00 | 0.00 | 0.00 | 49 | 1012.8 |
| 20260504150450 | 64 | 219 | 2.0 | 2.0 | 0.00 | 0.00 | 0.00 | 50 | 1012.9 |
| 20260504140916 | 62 | 191 | 8.0 | 9.0 | 0.00 | 0.00 | 0.00 | 50 | 1012.9 |
| 20260504140412 | 63 | 158 | 6.0 | 9.0 | 0.00 | 0.00 | 0.00 | 50 | 1013.1 |
| 20260504130337 | 57 | 181 | 4.0 | 8.0 | 0.00 | 0.00 | 0.00 | 59 | 1013.2 |
| 20260504120300 | 51 | 221 | 0.0 | 1.0 | 0.00 | 0.00 | 0.00 | 68 | 1013.0 |
| 20260504110224 | 44 | 235 | 0.0 | 0.0 | 0.00 | 0.00 | 0.00 | 89 | 1013.4 |
| 20260504100148 | 43 | 245 | 0.0 | 0.0 | 0.00 | 0.00 | 0.00 | 92 | 1013.7 |
| 20260504090110 | 43 | 245 | 0.0 | 0.0 | 0.00 | 0.00 | 0.00 | 93 | 1014.0 |
| 20260504081541 | 42 | 246 | 0.0 | 0.0 | 0.00 | 0.00 | 0.00 | 95 | 1014.5 |
| 20260504081037 | 42 | 246 | 0.0 | 0.0 | 0.00 | 0.00 | 0.00 | 95 | 1014.7 |
| 20260504080533 | 42 | 246 | 0.0 | 0.0 | 0.00 | 0.00 | 0.00 | 95 | 1014.7 |